This demonstration page uses our WeatherBlox Daily Observations layout. Learn more.

Left ArrowRight Arrow

39.92423, -83.80882

Hourly Observations for September 17, 2021

Temp ( °F °C ) Dew Point ( °F °C ) Humidity (%) Winds ( mph kmh ) Pressure ( in mb ) Visibility ( mi km ) Precip ( " mm )
12:56 am 00:56 Hazy 61 16 N/A N/A ENE 6 9 30.12 1020 5 8 N/A
1:56 am 01:56 Clear with Mist and Fog 61 16 N/A N/A E 3 6 30.11 1020 3 5 N/A
2:00 am 02:00 Clear with Mist and Fog 61 16 N/A N/A E 3 6 30.11 1020 2 2 N/A
2:04 am 02:04 Clear with Mist and Fog 61 16 N/A N/A ENE 3 6 30.11 1020 1 1 N/A
2:13 am 02:13 Clear with Mist and Fog 61 16 N/A N/A N N/A 30.11 1020 1 2 N/A
2:16 am 02:16 Clear with Mist and Fog 61 16 N/A N/A N N/A 30.11 1020 3 5 N/A
2:18 am 02:18 Mostly Clear with Mist and Fog 61 16 N/A N/A N N/A 30.11 1020 3 4 N/A
2:20 am 02:20 Mostly Cloudy with Mist and Fog 61 16 N/A N/A N N/A 30.11 1020 1 2 N/A
2:23 am 02:23 Mostly Cloudy with Fog 61 16 N/A N/A ENE 3 6 30.10 1019 1 1 N/A
2:32 am 02:32 Mostly Cloudy with Fog 59 15 N/A N/A ENE 3 6 30.10 1019 0 0 N/A
2:56 am 02:56 Mostly Cloudy with Fog 61 16 N/A N/A N N/A 30.10 1019 1 1 N/A
3:37 am 03:37 Cloudy with Fog 57 14 N/A N/A E 5 7 30.11 1019 0 0 N/A
3:56 am 03:56 Cloudy with Fog 57 14 N/A N/A ENE 3 6 30.10 1019 0 0 N/A
4:15 am 04:15 Cloudy with Mist and Fog 59 15 N/A N/A ENE 3 6 30.11 1020 1 1 N/A
4:17 am 04:17 Cloudy with Mist and Fog 59 15 N/A N/A ENE 3 6 30.11 1020 1 2 N/A
4:23 am 04:23 Cloudy with Mist and Fog 59 15 N/A N/A ENE 3 6 30.11 1020 1 1 N/A
4:28 am 04:28 Cloudy with Fog 59 15 N/A N/A NE 3 6 30.11 1020 0 0 N/A
4:39 am 04:39 Mostly Cloudy with Mist and Fog 59 15 N/A N/A N N/A 30.11 1020 1 1 N/A
4:41 am 04:41 Mostly Cloudy with Mist and Fog 59 15 N/A N/A N N/A 30.11 1020 2 3 N/A
4:43 am 04:43 Hazy 59 15 N/A N/A N N/A 30.12 1020 4 6 N/A
4:56 am 04:56 Hazy 59 15 N/A N/A N N/A 30.12 1020 5 8 N/A
5:31 am 05:31 Mostly Clear with Mist and Fog 59 15 N/A N/A ENE 3 6 30.12 1020 2 2 N/A
5:34 am 05:34 Mostly Cloudy with Mist and Fog 59 15 N/A N/A ENE 3 6 30.12 1020 1 1 N/A
5:38 am 05:38 Mostly Cloudy with Fog 59 15 N/A N/A ENE 3 6 30.12 1020 0 0 N/A
5:56 am 05:56 Cloudy with Fog 59 15 N/A N/A ENE 3 6 30.13 1020 0 0 N/A
6:56 am 06:56 Cloudy with Fog 59 15 N/A N/A N N/A 30.14 1021 0 0 N/A
7:46 am 07:46 Mostly Cloudy with Mist and Fog 59 15 N/A N/A NNE 3 6 30.15 1021 1 1 N/A
7:49 am 07:49 Mostly Cloudy with Mist and Fog 59 15 N/A N/A NNE 3 6 30.15 1021 3 4 N/A
7:56 am 07:56 Mostly Cloudy with Haze 59 15 N/A N/A N N/A 30.15 1021 6 10 N/A
8:03 am 08:03 Hazy 61 16 N/A N/A NE 3 6 30.15 1021 6 10 N/A
8:16 am 08:16 Sunny with Mist and Fog 63 17 N/A N/A undefined N/A 30.14 1021 2 3 N/A
8:49 am 08:49 Sunny with Mist and Fog 64 18 N/A N/A E 5 7 30.14 1021 3 5 N/A
8:56 am 08:56 Hazy 66 19 N/A N/A E 5 7 30.16 1021 4 6 N/A
9:56 am 09:56 Sunny 72 22 N/A N/A SSE 3 6 30.17 1022 10 16 N/A
10:56 am 10:56 Sunny 76 24.4 71 21.7 85 85 N N/A 30.17 1022 10 16 N/A
11:56 am 11:56 Partly Cloudy 79 26.1 71 21.7 77 77 VRB 3 6 30.17 1022 10 16 N/A
12:19 pm 12:19 Mostly Cloudy 81 27 72 22 74 74 N N/A 30.13 1020 10 16 N/A
12:33 pm 12:33 Partly Cloudy 81 27 72 22 74 74 N N/A 30.13 1020 10 16 N/A
12:56 pm 12:56 Partly Cloudy 82 27.8 70 21.1 67 67 WSW 6 9 30.16 1021 9 14 N/A
1:56 pm 13:56 Mostly Sunny 83 28.3 69 20.6 63 63 WSW 7 11 30.14 1021 10 16 N/A
2:56 pm 14:56 Mostly Sunny 85 29.4 67 19.4 55 55 W 6 9 30.11 1020 10 16 N/A
3:56 pm 15:56 Mostly Sunny 85 29.4 67 19.4 55 55 WSW 6 9 30.10 1019 10 16 N/A
4:56 pm 16:56 Partly Cloudy 85 29.4 67 19.4 55 55 WSW 5 7 30.09 1019 10 16 N/A
5:56 pm 17:56 Sunny 85 29.4 67 19.4 55 55 NW 5 7 30.09 1019 10 16 N/A
6:56 pm 18:56 Sunny 83 28.3 66 18.9 57 57 N N/A 30.09 1019 10 16 N/A
7:56 pm 19:56 Clear 76 24.4 69 20.6 79 79 N N/A 30.09 1019 10 16 N/A
8:56 pm 20:56 Clear 75 23.9 70 21.1 84 84 N N/A 30.11 1020 10 16 N/A
9:56 pm 21:56 Clear 72 22.2 71 21.7 97 97 N N/A 30.11 1020 10 16 N/A
10:56 pm 22:56 Clear 66 19 N/A N/A N N/A 30.11 1020 10 16 N/A
11:56 pm 23:56 Clear 64 18 N/A N/A N N/A 30.13 1020 10 16 N/A

Powered by AerisWeather